Temp
73 75 82 83 84 83 83 83 83 83 83 83 83 83 83 83 83 83 83 84 84 84 84 84 84 84 84 84 84 84 83 83 83 83 83 83 83 83 83 84 83 82 82
74 77 82 82 83 84 83 83 83 83 83 83 83 83 83 83 83 83 83 84 84 84 84 84 84 84 83 83 84 84 83 83 83 84 83 83 82 83 83 83 83 82 82
74 77 80 82 83 83 83 83 83 83 83 83 83 83 83 83 84 84 84 84 84 84 84 84 84 84 83 83 83 82 82 82 83 84 83 79 79 83 82 83 83 82 82
75 76 78 82 83 83 83 83 83 83 83 83 83 83 83 83 84 84 84 84 84 84 84 84 84 83 83 82 83 82 82 83 83 83 79 79 82 83 83 83 82 82 82
75 77 79 82 83 83 82 82 82 83 83 83 83 83 84 84 84 84 84 84 84 84 84 83 83 83 83 83 82 82 82 83 83 83 77 76 76 82 83 82 82 82 81
75 78 81 83 83 83 82 83 83 83 83 83 83 84 84 83 83 84 84 84 84 84 84 84 83 83 83 83 83 83 83 83 84 79 79 77 75 82 83 82 82 82 81
73 76 78 82 83 83 82 82 83 83 83 83 83 84 84 83 84 84 84 83 83 83 83 84 84 84 84 84 84 83 82 83 79 78 78 77 75 82 82 83 82 82 81
75 75 78 82 82 82 82 83 83 83 83 83 83 83 83 83 83 83 83 83 83 83 83 83 83 84 84 84 84 83 83 84 79 79 77 76 77 81 82 82 82 82 81
75 75 75 77 80 83 83 83 83 83 83 83 83 83 83 83 83 83 83 83 83 83 83 83 83 84 84 84 83 83 83 84 75 75 79 75 79 81 83 82 82 82 81
74 74 74 74 75 75 77 83 83 83 83 83 83 83 83 83 84 83 82 82 83 83 83 83 84 82 81 81 83 83 84 84 77 75 76 76 80 82 83 82 82 81 81
72 73 73 74 74 74 76 79 81 83 83 84 83 83 82 77 78 81 82 82 83 84 84 84 81 82 81 80 81 82 83 76 78 76 75 78 79 82 83 82 82 81 81
70 72 74 73 74 74 81 75 74 77 76 75 75 76 75 75 76 81 81 83 84 83 84 81 82 83 80 74 75 78 77 79 76 79 76 79 79 81 82 82 81 81 81
74 75 75 74 74 74 74 73 73 73 73 73 74 73 73 76 75 75 74 72 72 78 77 78 76 74 77 75 77 74 75 75 74 76 76 78 81 82 83 82 81 81 81
72 73 76 75 73 72 72 71 72 73 72 72 73 74 75 73 73 72 71 72 73 74 74 73 71 73 74 74 74 74 75 72 71 73 75 81 81 81 83 82 82 81 81
71 74 75 74 72 72 71 70 71 73 72 72 72 75 75 74 74 74 74 73 73 74 73 72 71 71 71 72 74 77 74 72 72 73 71 81 82 81 81 82 82 82 81
72 73 76 74 73 73 70 71 70 72 74 74 73 76 78 76 75 74 72 69 68 74 73 72 72 72 73 73 77 78 79 74 73 73 73 72 80 80 81 82 82 82 82
73 74 75 75 75 74 74 74 74 74 78 76 76 76 78 78 76 75 71 70 70 71 74 73 74 76 77 77 76 77 78 79 75 75 76 75 77 80 80 81 81 81 82
74 74 75 81 76 74 74 73 74 75 75 75 76 77 78 79 77 75 72 71 69 68 72 73 73 74 73 73 73 75 75 76 79 77 77 77 79 80 80 81 81 81 81
75 74 74 76 75 74 74 74 74 75 75 76 76 76 77 79 78 75 73 73 72 70 73 73 74 73 72 72 74 76 75 74 76 79 78 79 78 78 80 80 80 81 82
77 75 77 75 74 74 73 72 73 73 74 76 76 75 79 77 80 75 75 75 75 73 72 72 71 73 72 71 77 77 73 73 72 72 73 77 74 73 74 79 76 80 81
77 75 76 74 73 72 70 70 70 71 73 73 75 78 77 77 80 78 76 76 75 75 73 73 73 71 70 72 70 71 72 71 70 71 71 70 72 76 76 76 72 77 76
76 76 75 74 74 75 73 71 72 72 73 73 75 76 78 78 79 79 76 77 76 76 75 74 73 71 70 71 70 67 66 72 70 71 70 73 71 73 75 73 73 74 72
77 75 76 75 75 77 73 72 72 72 72 71 73 74 75 77 78 77 77 75 75 74 74 73 73 71 70 70 70 68 64 62 64 68 70 68 68 66 69 72 73 73 72
79 79 78 76 76 75 74 72 72 70 69 71 72 73 76 78 77 78 77 75 73 72 72 73 75 72 70 68 69 70 67 66 62 61 66 67 68 69 71 72 71 72 73
81 79 78 76 77 76 76 75 73 70 70 72 72 73 73 75 77 79 75 71 69 70 69 72 72 71 69 68 67 67 67 66 63 63 62 64 67 67 68 69 72 70 73
82 81 78 76 76 75 74 73 72 71 71 70 71 72 73 74 75 74 74 71 70 69 69 71 72 71 70 69 68 67 66 66 64 63 61 61 62 67 67 68 68 70 70
MSLP
1016.66 1016.29 1015.88 1015.93 1015.93 1015.99 1016.01 1015.98 1016.03 1016.22 1016.42 1016.43 1016.48 1016.58 1016.69 1016.69 1016.76 1016.99 1017.07 1017.07 1017.07 1017.11 1017.25 1017.40 1017.41 1017.33 1017.42 1017.44 1017.52 1017.41 1017.44 1017.39 1017.39 1017.15 1017.14 1017.03 1017.12 1017.17 1017.17 1017.15 1017.24 1017.22 1017.15
1016.49 1016.24 1016.11 1016.12 1016.08 1016.12 1016.23 1016.28 1016.36 1016.48 1016.62 1016.69 1016.80 1016.84 1016.92 1017.03 1017.04 1017.12 1017.33 1017.39 1017.49 1017.51 1017.60 1017.39 1017.58 1017.52 1017.43 1017.55 1017.69 1017.77 1017.92 1017.93 1017.90 1017.70 1017.41 1017.44 1017.43 1017.34 1017.34 1017.34 1017.34 1017.30 1017.27
1016.49 1016.34 1016.21 1016.19 1016.30 1016.49 1016.59 1016.63 1016.74 1016.87 1016.92 1016.95 1017.05 1017.09 1017.18 1017.38 1017.38 1017.44 1017.50 1017.63 1017.59 1017.78 1017.83 1017.60 1017.67 1017.73 1017.62 1017.72 1017.84 1017.93 1018.05 1018.04 1018.07 1017.92 1017.77 1017.87 1017.81 1017.57 1017.58 1017.55 1017.57 1017.51 1017.48
1016.39 1016.48 1016.51 1016.49 1016.59 1016.75 1016.87 1017.04 1017.15 1017.18 1017.27 1017.28 1017.30 1017.43 1017.48 1017.41 1017.55 1017.71 1017.77 1017.78 1017.87 1017.93 1018.03 1017.83 1017.79 1017.87 1018.02 1018.01 1018.06 1018.04 1018.10 1018.11 1018.15 1018.12 1018.07 1017.94 1017.78 1017.88 1017.73 1017.64 1017.62 1017.63 1017.62
1016.51 1016.44 1016.46 1016.54 1016.80 1016.95 1017.18 1017.28 1017.40 1017.43 1017.58 1017.68 1017.49 1017.64 1017.77 1017.77 1017.82 1017.82 1017.96 1018.06 1018.16 1018.21 1018.32 1018.06 1017.96 1017.88 1018.11 1018.28 1018.37 1018.14 1018.10 1017.95 1017.91 1017.94 1018.16 1018.11 1017.84 1017.83 1017.88 1017.92 1017.80 1017.71 1017.74
1016.63 1016.58 1016.53 1016.74 1016.99 1017.17 1017.39 1017.48 1017.62 1017.80 1017.82 1017.97 1017.88 1017.88 1017.98 1018.02 1018.08 1018.00 1018.00 1018.12 1018.29 1018.33 1018.44 1018.24 1018.07 1017.97 1017.99 1018.14 1018.15 1018.16 1017.91 1017.79 1017.52 1017.63 1017.82 1018.06 1017.92 1017.74 1017.79 1017.85 1017.96 1017.80 1017.76
1016.95 1016.86 1016.85 1016.99 1017.23 1017.35 1017.50 1017.62 1017.86 1017.94 1017.96 1018.07 1018.01 1017.95 1017.99 1018.06 1018.10 1018.10 1018.17 1018.31 1018.37 1018.42 1018.54 1018.37 1018.15 1018.22 1018.25 1018.17 1018.00 1017.92 1017.89 1017.69 1017.62 1017.21 1017.38 1017.78 1018.08 1017.77 1017.76 1017.87 1017.85 1017.93 1017.95
1017.04 1017.07 1017.15 1017.24 1017.41 1017.61 1017.62 1017.66 1017.89 1017.88 1017.87 1017.96 1018.01 1018.08 1018.10 1018.21 1018.15 1018.24 1018.29 1018.20 1018.19 1018.32 1018.42 1018.35 1018.11 1018.19 1018.11 1018.05 1017.94 1017.92 1017.63 1017.93 1018.02 1017.63 1017.67 1017.83 1017.96 1017.80 1017.70 1017.87 1017.98 1018.06 1018.20
1017.14 1017.38 1017.55 1017.60 1017.60 1017.77 1017.76 1017.78 1017.90 1017.98 1017.98 1018.15 1018.23 1018.06 1018.19 1018.25 1018.24 1018.26 1018.23 1018.16 1018.24 1018.27 1018.41 1018.35 1018.04 1017.95 1017.85 1017.94 1017.89 1017.88 1017.82 1018.04 1018.31 1018.31 1018.25 1018.25 1017.85 1017.67 1017.53 1017.60 1017.81 1017.90 1018.04
1017.53 1017.65 1017.85 1017.91 1017.95 1018.00 1017.93 1017.87 1017.90 1018.01 1018.21 1018.39 1018.36 1018.37 1018.48 1018.36 1018.28 1018.40 1018.39 1018.50 1018.49 1018.53 1018.55 1018.44 1018.14 1017.86 1017.67 1017.57 1017.79 1017.62 1017.60 1017.56 1017.78 1017.83 1017.93 1018.19 1017.98 1017.55 1017.40 1017.33 1017.40 1017.57 1017.69
1018.04 1018.12 1017.97 1018.01 1018.06 1018.13 1018.02 1018.11 1018.29 1018.24 1018.41 1018.53 1018.50 1018.60 1018.63 1018.64 1018.54 1018.61 1018.55 1018.53 1018.55 1018.59 1018.59 1018.37 1018.28 1018.08 1017.69 1017.51 1017.63 1017.63 1017.28 1017.18 1017.41 1017.48 1017.50 1017.87 1018.00 1017.69 1017.48 1017.22 1017.18 1017.16 1017.30
1018.11 1018.07 1017.88 1018.11 1018.08 1018.30 1018.08 1018.45 1018.58 1018.58 1018.60 1018.77 1018.74 1018.71 1018.88 1018.69 1018.52 1018.34 1018.44 1018.51 1018.51 1018.65 1018.37 1018.22 1018.12 1017.94 1017.58 1017.40 1017.39 1017.52 1017.22 1016.97 1017.40 1017.24 1017.35 1017.30 1017.22 1017.39 1017.30 1017.22 1016.93 1016.98 1017.05
1017.93 1018.05 1018.10 1018.09 1018.27 1018.59 1018.51 1018.56 1018.70 1018.76 1018.60 1018.70 1018.70 1018.65 1018.60 1018.35 1018.19 1018.25 1018.54 1018.87 1018.72 1018.51 1018.26 1017.99 1017.89 1017.96 1017.63 1017.16 1016.97 1017.55 1017.63 1017.29 1017.14 1016.55 1016.21 1016.84 1016.33 1016.57 1016.61 1016.81 1016.82 1016.71 1016.68
1018.11 1018.17 1018.18 1018.25 1018.64 1018.83 1018.78 1018.67 1018.53 1018.58 1018.75 1018.91 1018.97 1018.92 1018.71 1018.55 1018.44 1018.55 1018.78 1018.66 1018.53 1018.05 1017.91 1018.09 1017.97 1017.43 1017.24 1017.14 1017.04 1017.07 1017.46 1017.95 1017.65 1016.92 1016.18 1015.91 1015.71 1015.82 1016.11 1016.28 1016.59 1016.64 1016.66
1018.22 1018.21 1018.27 1018.46 1018.84 1018.60 1018.90 1019.03 1018.86 1018.78 1018.98 1018.87 1018.74 1018.41 1018.16 1018.18 1018.30 1018.43 1018.34 1018.49 1018.36 1017.95 1017.81 1018.06 1018.02 1017.76 1017.49 1017.41 1017.07 1016.43 1016.83 1017.47 1017.06 1016.65 1015.94 1015.48 1015.50 1015.64 1015.79 1015.94 1016.12 1016.21 1016.21
1018.19 1018.27 1018.22 1018.62 1018.76 1018.62 1018.98 1018.98 1018.98 1018.88 1018.78 1018.51 1018.37 1018.14 1018.00 1017.98 1018.10 1018.28 1018.28 1018.66 1018.60 1018.10 1017.85 1017.65 1018.23 1017.60 1017.18 1017.08 1016.61 1016.41 1016.15 1016.70 1016.29 1016.18 1015.81 1015.62 1015.68 1015.56 1015.48 1015.58 1015.72 1015.74 1015.91
1018.11 1018.21 1018.17 1018.38 1018.54 1018.35 1018.44 1018.49 1018.60 1018.69 1018.33 1018.12 1018.23 1018.36 1018.19 1017.89 1018.05 1018.09 1018.21 1018.33 1018.19 1018.19 1017.80 1017.64 1017.45 1017.08 1016.88 1016.34 1016.36 1016.04 1015.79 1015.73 1015.78 1015.81 1015.58 1015.54 1015.28 1015.21 1015.12 1015.11 1015.25 1015.44 1015.18
1017.72 1018.07 1017.98 1018.07 1018.45 1018.44 1018.23 1018.42 1018.64 1018.53 1018.33 1018.35 1018.25 1018.14 1018.02 1017.90 1017.93 1017.93 1018.01 1018.01 1017.92 1017.89 1017.63 1017.42 1017.31 1016.98 1016.84 1016.62 1016.39 1015.92 1015.84 1015.65 1015.43 1015.47 1015.24 1015.13 1015.01 1014.85 1014.63 1014.70 1014.70 1014.75 1014.65
1017.33 1017.68 1017.91 1017.91 1018.23 1018.51 1018.32 1018.54 1018.62 1018.39 1018.31 1018.09 1018.02 1018.03 1017.78 1017.86 1017.81 1017.82 1017.91 1017.75 1017.66 1017.69 1017.37 1017.33 1017.16 1017.12 1017.02 1016.95 1016.84 1016.50 1016.17 1016.00 1015.61 1015.54 1015.48 1015.42 1015.06 1014.95 1014.78 1014.52 1014.26 1014.22 1014.07
1016.99 1017.34 1017.49 1017.77 1017.98 1018.21 1018.32 1018.59 1018.62 1018.60 1018.37 1018.03 1017.96 1018.13 1017.94 1017.96 1017.60 1017.56 1017.61 1017.47 1017.18 1017.31 1017.41 1017.52 1017.49 1017.29 1017.26 1017.25 1017.00 1016.72 1016.33 1016.07 1015.91 1015.69 1015.60 1015.17 1015.18 1015.06 1015.09 1014.54 1014.47 1014.07 1013.61
1016.50 1016.94 1017.12 1017.55 1017.68 1018.18 1018.53 1018.84 1018.94 1018.91 1018.49 1018.33 1018.10 1017.75 1017.64 1017.63 1017.39 1017.30 1017.32 1017.14 1017.11 1017.44 1017.44 1017.40 1017.43 1017.52 1017.48 1017.23 1017.24 1016.80 1016.26 1016.15 1015.85 1015.74 1015.67 1015.87 1015.25 1014.78 1014.74 1014.26 1014.16 1013.73 1013.50
1015.99 1016.40 1016.86 1017.14 1017.40 1017.80 1017.98 1018.22 1018.43 1018.54 1018.42 1018.35 1018.09 1017.88 1017.64 1017.55 1017.27 1016.91 1016.96 1017.21 1017.05 1017.21 1017.22 1017.12 1017.27 1017.58 1017.58 1017.28 1017.42 1017.61 1017.15 1016.25 1016.04 1015.78 1015.53 1015.23 1014.97 1014.57 1014.25 1014.13 1013.87 1013.45 1013.40
1015.40 1015.83 1016.30 1016.69 1017.02 1017.37 1017.65 1017.99 1018.31 1018.53 1018.44 1018.46 1018.25 1017.88 1017.47 1017.40 1017.01 1016.83 1017.01 1017.14 1017.24 1017.27 1017.31 1017.27 1017.17 1017.35 1017.45 1017.37 1017.35 1017.46 1017.58 1017.40 1016.84 1015.88 1015.55 1015.55 1015.11 1014.89 1014.47 1013.94 1013.53 1013.37 1013.16
1014.59 1015.16 1015.66 1016.09 1016.57 1016.89 1017.20 1017.61 1018.06 1018.40 1018.56 1018.21 1018.03 1017.73 1017.33 1016.93 1016.79 1016.73 1016.84 1017.07 1017.21 1017.41 1017.45 1017.38 1017.30 1017.28 1017.30 1017.45 1017.24 1017.25 1017.37 1017.43 1017.30 1016.58 1015.77 1015.38 1015.05 1014.69 1014.23 1013.60 1013.21 1012.75 1012.51
1014.00 1014.53 1015.01 1015.57 1016.04 1016.35 1016.76 1016.99 1017.52 1018.02 1018.05 1017.84 1017.72 1017.70 1017.41 1017.03 1016.70 1016.58 1016.64 1017.01 1017.25 1017.35 1017.25 1017.24 1017.17 1017.12 1017.24 1017.33 1017.45 1017.42 1017.38 1017.36 1017.54 1017.65 1016.64 1015.83 1015.21 1014.81 1014.35 1013.79 1013.24 1012.73 1012.50
1013.33 1013.86 1014.35 1014.87 1015.28 1015.75 1016.18 1016.59 1016.89 1017.39 1017.86 1018.04 1017.77 1017.59 1017.30 1017.14 1016.93 1016.62 1016.80 1016.82 1016.83 1016.99 1017.10 1017.13 1017.11 1017.04 1017.17 1017.20 1017.38 1017.48 1017.59 1017.67 1017.49 1017.47 1017.16 1016.59 1016.02 1014.88 1014.15 1013.74 1013.29 1013.00 1012.69
Wind_Speed
3 1 10 14 16 15 15 15 16 16 16 15 16 16 16 16 17 16 15 14 14 14 13 12 11 12 11 10 11 12 12 12 10 11 11 12 11 9 9 9 9 7 9
3 3 10 13 15 15 13 14 14 14 14 14 14 14 15 14 15 15 14 14 12 12 11 12 10 10 10 9 9 11 9 10 8 9 9 8 7 8 8 8 8 7 9
5 4 6 11 14 14 13 13 13 13 13 13 14 14 15 14 14 13 13 12 12 11 11 10 8 8 8 8 8 9 7 8 7 8 9 3 3 10 9 8 9 8 8
5 6 6 11 13 13 13 12 12 12 12 13 14 13 13 12 13 12 12 12 11 10 9 8 6 5 5 5 6 5 3 1 3 8 3 4 7 10 9 10 9 8 7
5 6 9 14 13 13 12 12 12 12 12 12 12 12 12 13 12 11 10 10 9 8 6 5 3 1 2 2 3 1 2 6 10 9 6 5 3 8 10 9 9 9 8
5 6 10 13 13 13 12 12 11 10 11 10 10 12 12 12 10 11 10 8 6 5 3 2 1 2 2 3 2 5 4 6 7 6 7 7 5 10 12 11 9 10 9
5 5 6 13 13 12 12 11 12 10 9 10 9 11 11 10 9 9 7 6 4 3 1 2 4 5 5 7 7 9 7 7 5 4 6 6 5 12 13 12 10 9 9
7 6 6 12 12 12 12 12 11 10 10 10 10 10 9 8 8 7 5 5 5 4 4 4 6 7 7 8 10 11 12 9 5 3 3 4 9 13 13 12 10 10 9
7 6 5 5 9 11 10 11 10 10 9 7 7 7 8 7 6 6 6 6 6 6 7 7 7 8 9 9 10 9 11 9 2 3 5 3 11 14 14 14 12 11 11
6 5 6 5 5 5 4 9 10 9 7 6 5 5 4 4 5 6 7 7 8 8 8 8 9 6 6 7 8 10 8 7 2 5 4 4 11 14 14 14 14 13 12
5 6 5 5 6 4 4 4 5 7 6 4 2 3 2 2 4 5 8 10 9 9 10 10 7 8 9 6 7 10 13 2 5 6 1 7 10 12 14 14 13 14 14
5 6 5 5 4 4 3 3 3 0 2 2 1 3 2 4 5 6 9 12 11 10 11 8 11 11 11 3 1 2 3 3 2 3 1 12 16 16 16 15 15 15 16
5 3 5 4 4 4 3 2 2 1 1 2 3 3 4 4 4 2 1 1 3 7 4 6 8 3 4 3 2 3 4 2 4 5 8 11 13 15 16 16 16 17 17
5 5 5 4 5 5 3 2 3 2 1 1 2 5 2 0 1 2 2 3 2 1 4 5 4 6 6 5 4 3 3 3 3 3 5 13 11 11 16 17 17 16 15
5 5 6 6 5 5 5 2 1 1 1 1 3 4 4 3 2 1 3 2 2 4 3 5 4 5 5 5 4 7 6 6 6 3 4 13 10 13 15 17 18 17 16
5 6 6 6 6 5 5 4 2 1 3 4 4 5 3 1 3 1 2 1 3 2 4 3 5 4 5 4 6 6 7 8 8 7 5 5 14 13 14 16 17 18 18
5 6 7 7 7 6 5 4 2 3 4 3 3 5 5 4 3 2 2 3 3 3 5 3 3 3 4 2 4 5 5 4 6 10 7 6 7 16 17 17 16 18 19
7 7 7 7 7 6 4 2 1 3 3 2 1 3 6 5 3 2 2 4 4 4 4 3 3 3 3 3 4 5 5 5 3 6 6 7 6 6 10 17 16 18 19
10 7 8 7 7 7 5 3 3 4 3 4 2 2 5 5 6 3 2 4 4 3 4 3 2 1 3 5 5 5 5 4 6 1 4 6 5 4 4 9 17 18 19
10 9 11 7 7 8 5 2 1 2 4 4 4 1 5 5 4 0 3 3 1 2 3 2 2 2 0 2 4 5 5 4 3 3 4 5 3 4 4 5 5 10 21
10 10 12 9 8 4 2 2 1 3 3 3 4 7 7 5 4 2 3 2 2 1 1 1 1 2 3 2 2 5 3 2 2 4 3 4 6 4 4 2 3 6 6
11 12 11 10 9 9 4 3 3 3 4 3 3 5 3 5 5 5 4 3 4 3 3 2 0 2 1 1 1 1 4 6 2 4 4 5 6 5 7 6 5 4 2
12 12 12 11 12 12 8 3 1 1 2 2 3 4 3 6 8 6 3 4 3 3 3 2 1 2 2 2 1 2 3 3 4 3 5 5 7 5 5 6 5 4 5
14 11 12 11 12 9 10 7 7 5 5 4 3 3 5 6 6 5 4 3 1 2 4 4 3 1 1 3 2 2 2 3 3 5 3 4 4 5 7 7 8 7 8
14 14 12 13 13 10 11 9 7 6 4 4 4 5 4 6 3 6 5 2 2 1 3 4 5 3 1 1 1 2 1 2 1 2 6 6 5 3 5 5 7 7 8
14 13 13 14 14 12 10 9 10 9 6 4 4 4 4 2 1 5 2 3 3 2 3 4 3 4 2 1 1 1 0 1 3 3 4 4 5 8 5 6 6 5 4
Wind_Direction
350 110 103 95 103 98 89 85 83 83 81 80 81 84 86 89 91 91 95 101 99 97 97 98 100 100 102 105 107 107 108 115 126 128 146 139 140 146 151 144 139 137 136
121 140 109 103 101 105 99 91 89 89 89 85 89 90 87 87 97 101 101 101 97 98 97 97 97 101 103 101 105 107 112 114 118 127 125 114 134 160 156 161 149 141 139
115 132 116 108 102 100 96 94 95 93 91 90 92 94 90 92 93 98 97 97 100 94 94 94 93 93 99 98 95 87 95 115 144 145 142 139 134 164 165 162 155 151 147
126 120 111 107 106 104 96 97 94 95 93 90 90 93 94 95 90 89 94 105 103 101 102 99 92 80 75 77 75 85 93 129 187 187 156 189 173 178 177 168 164 159 156
113 130 125 120 114 106 98 98 98 101 99 94 101 96 97 100 102 104 104 105 110 111 108 109 110 83 2 25 11 333 249 231 227 217 205 230 200 184 181 182 172 169 169
114 127 125 121 113 110 109 102 95 96 96 101 100 102 106 100 111 107 112 114 107 112 133 153 220 244 283 298 295 284 265 291 279 214 198 207 192 185 187 187 196 181 172
91 103 106 114 115 116 114 109 107 103 105 101 108 114 116 113 115 120 122 119 126 130 236 280 280 292 308 313 307 302 304 313 297 206 164 176 200 188 191 198 187 187 184
116 114 110 118 119 122 118 118 119 111 124 124 125 125 127 132 133 136 154 165 187 206 235 265 291 299 305 308 308 312 310 332 348 355 138 171 198 192 187 193 196 194 200
108 102 91 109 127 126 122 124 129 123 131 133 133 145 146 151 163 180 203 205 221 235 253 263 277 289 301 308 310 304 306 327 17 358 319 243 206 199 195 191 194 196 204
86 109 104 108 111 105 120 141 141 147 149 144 152 165 168 182 200 221 229 247 248 251 262 269 275 289 283 294 316 318 300 294 240 302 240 267 237 208 209 199 197 200 205
79 106 141 138 123 141 158 156 132 156 151 154 184 244 233 280 275 270 269 257 266 273 279 280 264 274 301 335 329 343 307 67 265 230 272 266 283 245 235 218 213 206 210
140 159 162 141 166 186 155 124 141 73 120 128 203 243 270 251 254 256 257 282 288 275 273 251 264 277 292 273 357 324 302 181 140 251 164 279 267 262 245 239 223 218 215
164 143 156 167 153 178 149 162 101 134 196 180 215 190 244 245 241 237 152 302 287 300 284 250 278 248 243 310 2 68 332 15 164 168 174 276 234 224 230 243 240 224 223
159 176 173 138 99 148 138 164 166 139 8 225 251 252 234 135 165 259 259 280 295 30 297 269 274 294 316 331 332 343 175 244 313 251 194 215 196 216 237 236 238 239 238
175 188 185 142 154 186 126 184 203 144 215 219 250 267 199 181 216 249 267 18 359 272 268 257 264 272 288 310 308 268 159 209 216 225 230 246 232 228 241 240 233 235 235
195 197 177 152 175 191 141 155 159 167 261 258 253 253 254 228 259 329 272 124 246 225 244 221 237 260 267 265 283 245 259 200 197 218 227 253 257 243 242 240 233 233 238
202 200 180 169 170 182 169 181 171 271 284 296 242 261 264 238 272 267 274 310 289 259 287 255 232 234 268 277 300 286 267 223 215 208 213 237 254 244 242 233 233 238 237
199 183 196 186 170 185 188 161 235 267 289 256 232 254 240 261 267 235 264 276 279 296 303 310 302 321 287 339 321 320 335 326 271 228 214 229 237 239 244 232 231 233 237
199 185 187 197 178 180 197 183 228 296 312 298 267 297 246 235 211 202 240 289 299 300 308 281 305 310 343 340 333 322 307 305 303 357 253 251 257 264 266 252 240 237 239
184 183 188 188 186 186 183 183 246 299 287 284 299 253 259 250 230 264 207 228 286 253 278 310 291 325 303 298 316 305 294 331 24 16 343 322 330 308 294 293 278 263 251
185 183 186 178 196 164 158 168 211 239 268 301 290 288 239 231 251 224 229 253 229 264 301 280 316 343 327 350 9 329 320 106 45 341 281 284 284 260 266 277 288 288 288
185 193 187 188 184 196 187 171 165 196 245 241 267 282 261 252 263 252 255 282 293 328 337 344 42 343 267 248 224 201 331 315 311 298 298 293 292 305 301 280 274 264 272
191 189 191 190 189 199 188 152 169 354 335 299 267 280 255 235 244 243 254 294 302 292 315 304 293 213 267 307 299 181 334 264 320 295 293 325 304 319 287 287 289 286 270
201 195 192 193 191 193 180 174 175 180 214 236 234 250 287 309 264 212 180 219 321 19 339 330 303 245 156 297 309 132 216 228 293 318 297 282 302 317 306 309 306 279 247
194 194 193 191 198 196 190 189 183 197 219 253 274 284 291 286 242 222 199 149 232 267 325 320 321 325 109 249 157 327 335 263 164 284 306 326 318 300 288 285 297 304 310
197 190 190 190 200 197 188 190 189 195 197 225 264 263 262 291 282 236 291 307 310 334 323 308 296 29 50 22 20 8 169 270 280 261 268 276 275 307 299 302 299 328 328